Вернуться в каталог

HODOYOSHI 4

АктивенНаукаSSO
NORAD 40011·PAYLOAD·🇯🇵 Japan

Запущен Jun 19, 2014 с Dombarovsky

Loading…

Ближайшие Пролёты (ближайшие 24 часа)

TLE

СвежийSource: Space-Track

Эпоха: Sep 14, 2026, 14:12 UTC

1 40011U 14033B   26257.59229502  .00000939  00000-0  10670-3 0  9991
2 40011  97.5474  78.1316 0024002  12.7605 347.4215 14.88308313662109

Отслеживайте HODOYOSHI 4 в реальном времени с AllMySat

Download on the App Store